{"data":{"norad_id":60577,"intl_designator":"2024-149DP","name":"LEMUR-2-LLOYD","alt_names":[],"object_type":"PAYLOAD","status":"ACTIVE","operator":null,"country":"US","launch_date":"2024-08-16","launch_site_code":"AFWTR","launch_vehicle":null,"mission":null,"orbit_class":"UNKNOWN","rcs_meters":null,"size_class":null,"mass_kg":null,"dimensions":null,"purposes":["earth_obs"],"wikipedia_slug":null,"has_3d_model":false,"image_url":null,"decayed_at":null,"tle_current":{"epoch":"2026-09-18T11:25:59.690784Z","epoch_age_seconds":189218,"freshness":"STALE","line1":"1 60577U 24149DP  26261.47638531  .00006569  00000+0  39972-3 0  9997","line2":"2 60577  97.6688 342.7330 0003892 168.7314 191.4004 15.10762037114473","mean_motion":15.10762037,"eccentricity":0.0003892,"inclination_deg":97.6688,"raan_deg":342.733,"arg_perigee_deg":168.7314,"mean_anomaly_deg":191.4004,"bstar":0.00039972,"rev_number":11447,"period_min":95.31613614408,"perigee_km":531.18456521592,"apogee_km":536.5648751389,"semimajor_km":6912.0117201774,"source":"CELESTRAK","updated_at":"2026-09-20T09:00:34.871854Z"}}}